Regional Weather Roundup
Issued by NWS

Home | Current Version | Previous Version | Text Only | Print | Product List | Glossary Off
Versions: 1 2 3 4 5 6 7 8 9 10 11 12 13 14 15 16 17 18 19 20 21 22 23 24 25 26 27 28 29 30 31 32 33 34 35 36 37 38 39 40 41 42 43 44 45 46 47 48

000
ASUS43 KDMX 142307
RWRIA

WEATHER ROUNDUP FOR IOWA
NATIONAL WEATHER SERVICE DES MOINES IA
600 PM CDT SUN SEP 14 2014

NOTE: "FAIR" INDICATES FEW OR NO CLOUDS BELOW 12,000 FEET WITH NO
SIGNIFICANT WEATHER AND/OR OBSTRUCTIONS TO VISIBILITY.

* - THESE STATIONS ARE NOT NWS STATIONS...THUS NOT UNDER NWS
QUALITY CONTROL.  THEY ALSO DO NOT REPORT WEATHER SUCH
AS PRECIPITATION OR FOG.

IAZ001>003-012>014-020>022-031>034-043>046-150000-
   NORTHWEST IOWA

CITY           SKY/WX    TMP DP  RH WIND       PRES   REMARKS
CARROLL *      MOSUNNY   66  52  59 S5        30.10S
CHEROKEE *     MOSUNNY   66  50  55 SW6       30.10S
DENISON *      PTSUNNY   68  50  52 SW6       30.09R
LE MARS *      SUNNY     66  50  55 S3        30.10S
ORANGE CITY *  SUNNY     66  48  52 W5        30.10F
SHELDON *      SUNNY     64  48  55 CALM      30.09F
SIOUX CITY     MOSUNNY   69  50  50 S7        30.09F
SPENCER        MOSUNNY   66  51  58 NW5       30.11S
STORM LAKE *   MOSUNNY   64  54  68 SW5       30.11S
$$

IAZ055>058-069>071-079>083-090>094-150000-
   SOUTHWEST IOWA

CITY           SKY/WX    TMP DP  RH WIND       PRES   REMARKS
ATLANTIC *     PTSUNNY   68  50  52 S7        30.09S
AUDUBON *      PTSUNNY   68  57  68 SE3       30.11S
CLARINDA *     SUNNY     70  50  49 S8        30.11S
COUNCIL BLFS * SUNNY     70  54  56 S8        30.07F
CRESTON *      MOSUNNY   66  52  59 S8        30.11F
HARLAN  *      PTSUNNY   68  52  56 S7        30.12S
LAMONI         SUNNY     67  49  52 S9        30.12F
SHENANDOAH *   SUNNY     70  52  52 SE8       30.08F
$$

IAZ047>049-059>061-072>074-084-150000-
   CENTRAL IOWA

CITY           SKY/WX    TMP DP  RH WIND       PRES   REMARKS
AMES           MOSUNNY   64  52  64 S5        30.11F
ANKENY *       MOSUNNY   66  52  59 S5        30.11F
CHARITON *     SUNNY     68  50  52 S8        30.13S
DES MOINES     PTSUNNY   68  50  52 S7        30.11F
GRINNELL*      SUNNY     66  50  55 S6        30.13F
KNOXVILLE *    SUNNY     66  50  55 SE7       30.11F
MARSHALLTOWN   MOSUNNY   66  50  56 S7        30.11F
PELLA *        MOSUNNY   66  50  55 SE5       30.14S
PERRY *        PTSUNNY   68  50  52 CALM      30.10F
$$

IAZ004>006-015-016-023>025-035-036-150000-
   NORTH CENTRAL IOWA

CITY           SKY/WX    TMP DP  RH WIND       PRES   REMARKS
ALGONA *       SUNNY     66  52  59 VRB3      30.11S
CLARION *        N/A     68  48  49 SW3       30.11S
ESTHERVILLE    PTSUNNY   64  48  56 SW6       30.10F
FORT DODGE *   MOSUNNY   66  50  55 SW3       30.11S
MASON CITY     MOSUNNY   65  51  60 W6        30.12S
FOREST CITY *  SUNNY     64  52  63 W5        30.11S
IOWA FALLS *     N/A     66  50  55 S3        30.12S
$$

IAZ007>011-017>019-026>030-037>042-050>054-066-150000-
   NORTHEAST IOWA

CITY           SKY/WX    TMP DP  RH WIND       PRES   REMARKS
CEDAR RAPIDS   SUNNY     65  50  58 S6        30.13F
CHARLES CITY * MOSUNNY   64  50  59 SW6       30.12S
CLINTON *      SUNNY     64  45  48 SW6       30.20R
DECORAH *      SUNNY     64  48  55 SW9G15    30.11R
DUBUQUE        PTSUNNY   63  48  58 SW8       30.16F
MONTICELLO *   SUNNY     66  48  52 S6        30.14F
OELWEIN *      MOSUNNY   64  48  55 SW9       30.12S
WATERLOO       MOSUNNY   66  48  52 SW7       30.10F
$$

IAZ064-065-067-068-078-150000-
   EAST CENTRAL IOWA

CITY           SKY/WX    TMP DP  RH WIND       PRES   REMARKS
DAVENPORT      SUNNY     64  44  48 SW7       30.18S
IOWA CITY      SUNNY     66  48  52 S7        30.16F
MT. PLEASANT * MOSUNNY   66  43  42 SE5       30.16F
MUSCATINE *    SUNNY     68  45  42 S7        30.16S
QUAD CITIES    SUNNY     66  45  46 SW7       30.17S
$$

IAZ062-063-075>077-085>089-095>099-150000-
   SOUTHEAST IOWA

CITY           SKY/WX    TMP DP  RH WIND       PRES   REMARKS
BURLINGTON     MOSUNNY   66  47  50 SW3       30.16F
FAIRFIELD *    SUNNY     66  46  48 S7        30.16S
FORT MADISON * SUNNY     66  45  45 S3        30.17F
KEOKUK *       SUNNY     66  48  52 CALM      30.15F
OSKALOOSA *      N/A     64  52  63 S6        30.15S
CENTERVILLE *  SUNNY     66  50  55 SE5       30.15F
OTTUMWA        MOSUNNY   66  49  54 S7        30.14F
WASHINGTON *   SUNNY     66  48  52 S3        30.16S
$$

ABBREVIATIONS USED IN REMARKS
   TC - TEMPERATURES IN CELSIUS
  WCI - WIND CHILL INDEX
   HX - HEAT INDEX
  VSB - VISIBILITY
$$



USA.gov is the U.S. government's official web portal to all federal, state and local government web resources and services.